• In Hungary
  • List of Countries
  • For 7 days
  • Water Temperature
  • Satellite Maps
  • Weather Map
  • News
  • Weather Widgets
  • user-avatar
    Login

    Hourly Weather Auckland

    Today, 19 January, Friday

    Time Temperature Precipitation Wind Pressure Humidity
    00:00 +21°C° 0 mm 7 mps 759 mmHg 96%
    01:00 +21°C° 0.3 mm 7 mps 759 mmHg 96%
    02:00 +21°C° 0.3 mm 6 mps 759 mmHg 96%
    03:00 +20°C° 0.3 mm 6 mps 759 mmHg 97%
    04:00 +20°C° 0.2 mm 6 mps 759 mmHg 96%
    05:00 +20°C° 0.2 mm 6 mps 759 mmHg 96%
    06:00 +21°C° 0 mm 7 mps 759 mmHg 97%
    07:00 +21°C° 0.2 mm 6 mps 760 mmHg 96%
    08:00 +21°C° 0.2 mm 6 mps 760 mmHg 95%
    09:00 +21°C° 0.2 mm 5 mps 760 mmHg 94%
    10:00 +23°C° 0.1 mm 5 mps 760 mmHg 86%
    11:00 +25°C° 0.1 mm 5 mps 761 mmHg 79%
    12:00 +26°C° 0 mm 4 mps 761 mmHg 73%
    13:00 +26°C° 0.2 mm 4 mps 761 mmHg 72%
    14:00 +27°C° 0.2 mm 4 mps 761 mmHg 71%
    15:00 +27°C° 0.2 mm 4 mps 761 mmHg 70%
    16:00 +26°C° 0.1 mm 4 mps 761 mmHg 71%
    17:00 +26°C° 0.1 mm 4 mps 761 mmHg 72%
    18:00 +25°C° 0.1 mm 5 mps 761 mmHg 74%
    19:00 +23°C° 0 mm 4 mps 761 mmHg 79%
    20:00 +22°C° 0 mm 4 mps 762 mmHg 85%
    21:00 +21°C° 0 mm 4 mps 762 mmHg 90%
    22:00 +21°C° 0 mm 4 mps 762 mmHg 92%
    23:00 +20°C° 0 mm 4 mps 763 mmHg 94%

    Tomorrow, 20 January, Saturday

    Time Temperature Precipitation Wind Pressure Humidity
    00:00 +20°C° 0 mm 4 mps 763 mmHg 96%
    01:00 +20°C° 0 mm 4 mps 763 mmHg 96%
    02:00 +20°C° 0 mm 4 mps 762 mmHg 96%
    03:00 +19°C° 0 mm 4 mps 762 mmHg 97%
    04:00 +19°C° 0 mm 4 mps 762 mmHg 97%
    05:00 +19°C° 0 mm 4 mps 762 mmHg 97%
    06:00 +19°C° 0 mm 4 mps 763 mmHg 96%
    07:00 +21°C° 0 mm 4 mps 763 mmHg 90%
    08:00 +22°C° 0 mm 4 mps 763 mmHg 83%
    09:00 +25°C° 0 mm 3 mps 763 mmHg 77%
    10:00 +26°C° 0 mm 3 mps 763 mmHg 71%
    11:00 +27°C° 0 mm 3 mps 763 mmHg 66%
    12:00 +28°C° 0 mm 3 mps 763 mmHg 60%
    13:00 +29°C° 0 mm 3 mps 763 mmHg 58%
    14:00 +29°C° 0 mm 3 mps 763 mmHg 57%
    15:00 +29°C° 0 mm 3 mps 763 mmHg 55%
    16:00 +29°C° 0 mm 3 mps 763 mmHg 59%
    17:00 +28°C° 0 mm 3 mps 762 mmHg 63%
    18:00 +27°C° 0 mm 3 mps 762 mmHg 68%
    19:00 +25°C° 0 mm 3 mps 763 mmHg 76%
    20:00 +23°C° 0 mm 4 mps 763 mmHg 84%
    21:00 +21°C° 0 mm 4 mps 763 mmHg 93%
    22:00 +21°C° 0 mm 4 mps 763 mmHg 95%
    23:00 +21°C° 0 mm 4 mps 764 mmHg 96%

    Day after tomorrow, 21 January, Sunday

    Time Temperature Precipitation Wind Pressure Humidity
    00:00 +21°C° 0 mm 3 mps 764 mmHg 98%
    01:00 +21°C° 0 mm 3 mps 764 mmHg 98%
    02:00 +21°C° 0 mm 3 mps 763 mmHg 98%
    03:00 +21°C° 0 mm 3 mps 763 mmHg 99%
    04:00 +21°C° 0 mm 3 mps 763 mmHg 98%
    05:00 +21°C° 0 mm 3 mps 763 mmHg 98%
    06:00 +21°C° 0 mm 3 mps 763 mmHg 98%
    07:00 +22°C° 0 mm 3 mps 763 mmHg 91%
    08:00 +24°C° 0 mm 3 mps 763 mmHg 85%
    09:00 +26°C° 0 mm 3 mps 764 mmHg 78%
    10:00 +27°C° 0 mm 3 mps 763 mmHg 73%
    11:00 +27°C° 0 mm 3 mps 763 mmHg 67%
    12:00 +28°C° 0 mm 3 mps 763 mmHg 61%
    13:00 +28°C° 0 mm 3 mps 763 mmHg 60%
    14:00 +29°C° 0 mm 3 mps 763 mmHg 59%
    15:00 +29°C° 0 mm 3 mps 762 mmHg 58%
    16:00 +28°C° 0 mm 3 mps 762 mmHg 62%
    17:00 +27°C° 0 mm 3 mps 762 mmHg 66%
    18:00 +26°C° 0 mm 3 mps 762 mmHg 70%
    19:00 +25°C° 0.1 mm 3 mps 762 mmHg 75%
    20:00 +23°C° 0.1 mm 4 mps 762 mmHg 81%
    21:00 +22°C° 0.1 mm 4 mps 763 mmHg 86%
    22:00 +21°C° 0 mm 4 mps 763 mmHg 89%
    23:00 +21°C° 0 mm 4 mps 762 mmHg 91%

    22 January, Monday

    Time Temperature Precipitation Wind Pressure Humidity
    00:00 +21°C° 0 mm 4 mps 762 mmHg 94%
    01:00 +21°C° 0.1 mm 4 mps 762 mmHg 95%
    02:00 +20°C° 0.1 mm 4 mps 761 mmHg 96%
    03:00 +20°C° 0.1 mm 4 mps 761 mmHg 97%
    04:00 +20°C° 0.1 mm 4 mps 761 mmHg 97%
    05:00 +20°C° 0.1 mm 4 mps 761 mmHg 97%
    06:00 +20°C° 0.1 mm 4 mps 761 mmHg 98%
    07:00 +21°C° 0 mm 4 mps 761 mmHg 95%
    08:00 +22°C° 0 mm 4 mps 761 mmHg 92%
    09:00 +23°C° 0 mm 4 mps 761 mmHg 89%
    10:00 +25°C° 0.2 mm 4 mps 761 mmHg 81%
    11:00 +26°C° 0.2 mm 4 mps 761 mmHg 73%
    12:00 +27°C° 0.2 mm 5 mps 760 mmHg 64%
    13:00 +26°C° 0.3 mm 5 mps 760 mmHg 70%
    14:00 +25°C° 0.3 mm 5 mps 760 mmHg 77%
    15:00 +25°C° 0.3 mm 5 mps 759 mmHg 83%
    16:00 +25°C° 0.2 mm 5 mps 759 mmHg 84%
    17:00 +23°C° 0.2 mm 5 mps 759 mmHg 86%
    18:00 +23°C° 0.2 mm 4 mps 759 mmHg 88%
    19:00 +23°C° 1.1 mm 4 mps 759 mmHg 90%
    20:00 +22°C° 1.1 mm 4 mps 760 mmHg 93%
    21:00 +22°C° 1.1 mm 4 mps 760 mmHg 95%
    22:00 +22°C° 1 mm 4 mps 760 mmHg 96%
    23:00 +21°C° 1 mm 4 mps 760 mmHg 97%

    23 January, Tuesday

    Time Temperature Precipitation Wind Pressure Humidity
    00:00 +21°C° 1 mm 3 mps 760 mmHg 98%
    01:00 +21°C° 0.3 mm 3 mps 760 mmHg 98%
    02:00 +21°C° 0.3 mm 3 mps 759 mmHg 98%
    03:00 +21°C° 0.3 mm 3 mps 759 mmHg 98%
    04:00 +20°C° 0 mm 3 mps 759 mmHg 98%
    05:00 +20°C° 0 mm 3 mps 759 mmHg 98%
    06:00 +20°C° 0 mm 3 mps 760 mmHg 98%
    07:00 +22°C° 0 mm 3 mps 760 mmHg 92%
    08:00 +24°C° 0 mm 3 mps 760 mmHg 85%
    09:00 +26°C° 0 mm 3 mps 761 mmHg 78%
    10:00 +27°C° 0 mm 3 mps 761 mmHg 69%
    11:00 +29°C° 0 mm 3 mps 761 mmHg 60%
    12:00 +30°C° 0 mm 3 mps 760 mmHg 51%
    13:00 +30°C° 0 mm 3 mps 760 mmHg 51%
    14:00 +30°C° 0 mm 4 mps 760 mmHg 50%
    15:00 +30°C° 0 mm 4 mps 760 mmHg 49%
    16:00 +29°C° 0 mm 4 mps 760 mmHg 54%
    17:00 +28°C° 0 mm 3 mps 760 mmHg 58%
    18:00 +27°C° 0 mm 3 mps 760 mmHg 63%
    19:00 +25°C° 0 mm 3 mps 760 mmHg 72%
    20:00 +24°C° 0 mm 2 mps 761 mmHg 82%
    21:00 +21°C° 0 mm 2 mps 761 mmHg 92%
    22:00 +21°C° 0 mm 2 mps 761 mmHg 94%
    23:00 +20°C° 0 mm 2 mps 761 mmHg 96%

    24 January, Wednesday

    Time Temperature Precipitation Wind Pressure Humidity
    00:00 +20°C° 0 mm 2 mps 761 mmHg 98%
    01:00 +20°C° 0 mm 2 mps 761 mmHg 98%
    02:00 +20°C° 0 mm 2 mps 761 mmHg 98%
    03:00 +20°C° 0 mm 2 mps 761 mmHg 98%
    04:00 +20°C° 0 mm 2 mps 761 mmHg 98%
    05:00 +20°C° 0 mm 2 mps 761 mmHg 97%
    06:00 +22°C° 0 mm 1 mps 761 mmHg 97%
    07:00 +23°C° 0 mm 1 mps 762 mmHg 89%
    08:00 +24°C° 0 mm 1 mps 762 mmHg 80%
    09:00 +26°C° 0 mm 1 mps 762 mmHg 72%
    10:00 +27°C° 0 mm 2 mps 762 mmHg 63%
    11:00 +29°C° 0 mm 2 mps 762 mmHg 55%
    12:00 +30°C° 0 mm 3 mps 762 mmHg 46%
    13:00 +30°C° 0 mm 3 mps 761 mmHg 45%
    14:00 +30°C° 0 mm 4 mps 761 mmHg 45%
    15:00 +30°C° 0 mm 4 mps 761 mmHg 44%
    16:00 +29°C° 0 mm 4 mps 761 mmHg 50%
    17:00 +27°C° 0 mm 4 mps 761 mmHg 56%
    18:00 +26°C° 0 mm 4 mps 761 mmHg 63%
    19:00 +25°C° 0 mm 4 mps 761 mmHg 71%
    20:00 +22°C° 0 mm 3 mps 762 mmHg 80%
    21:00 +21°C° 0 mm 3 mps 762 mmHg 88%
    22:00 +20°C° 0 mm 3 mps 762 mmHg 90%
    23:00 +20°C° 0 mm 3 mps 762 mmHg 93%
    Show more